Time,TemperatureF,DewpointF,PressureIn,WindDirection,WindDirectionDegrees,WindSpeedMPH,WindSpeedGustMPH,Humidity,HourlyPrecipIn,Conditions,Clouds,dailyrainin,SolarRadiationWatts/m^2,SoftwareType,DateUTC
2013-03-13 00:02:00,50.0,49.0,-100.00,NE,56,0.0,5.0,96,0.00,,,0.00,0.000000,,2013-03-13 10:02:00,
2013-03-13 00:11:00,50.0,49.0,-100.00,NE,56,0.0,5.0,96,0.00,,,0.00,0.000000,,2013-03-13 10:11:00,
2013-03-13 00:22:00,50.0,49.0,-100.00,NE,56,0.0,5.0,96,0.00,,,0.00,0.000000,,2013-03-13 10:22:00,
2013-03-13 00:32:00,50.0,49.0,-100.00,NE,56,0.0,5.0,96,0.00,,,0.00,0.000000,,2013-03-13 10:32:00,
2013-03-13 01:02:00,50.0,49.0,-100.00,ENE,61,2.0,6.0,98,0.00,,,0.00,0.000000,,2013-03-13 11:02:00,
2013-03-13 01:12:00,50.0,49.0,-100.00,ENE,61,2.0,6.0,98,0.00,,,0.00,0.000000,,2013-03-13 11:12:00,
2013-03-13 01:22:00,50.0,49.0,-100.00,ENE,61,2.0,6.0,98,0.00,,,0.00,0.000000,,2013-03-13 11:22:00,
2013-03-13 01:32:00,50.0,49.0,-100.00,ENE,61,2.0,6.0,98,0.00,,,0.00,0.000000,,2013-03-13 11:32:00,
2013-03-13 01:52:00,50.0,49.0,-100.00,ENE,60,1.0,7.0,97,0.00,,,0.00,0.000000,,2013-03-13 11:52:00,
2013-03-13 02:02:00,50.0,49.0,-100.00,ENE,60,1.0,7.0,97,0.00,,,0.00,0.000000,,2013-03-13 12:02:00,
2013-03-13 02:12:00,50.0,49.0,-100.00,ENE,60,1.0,7.0,97,0.00,,,0.00,0.000000,,2013-03-13 12:12:00,
2013-03-13 02:22:00,50.0,49.0,-100.00,ENE,60,1.0,7.0,97,0.00,,,0.00,0.000000,,2013-03-13 12:22:00,
2013-03-13 02:32:00,50.0,49.0,-100.00,ENE,60,1.0,7.0,97,0.00,,,0.00,0.000000,,2013-03-13 12:32:00,
2013-03-13 03:02:00,50.0,50.0,-100.00,NE,56,1.0,4.0,99,0.00,,,0.00,0.000000,,2013-03-13 13:02:00,
2013-03-13 03:11:00,50.0,50.0,-100.00,NE,56,1.0,4.0,99,0.00,,,0.00,0.000000,,2013-03-13 13:11:00,
2013-03-13 03:22:00,50.0,50.0,-100.00,NE,56,1.0,4.0,99,0.00,,,0.00,0.000000,,2013-03-13 13:22:00,
2013-03-13 03:32:00,50.0,50.0,-100.00,NE,56,1.0,4.0,99,0.00,,,0.00,0.000000,,2013-03-13 13:32:00,
2013-03-13 04:02:00,49.0,49.0,-100.00,NNE,33,0.0,4.0,99,0.00,,,0.00,0.000000,,2013-03-13 14:02:00,
2013-03-13 04:12:00,49.0,49.0,-100.00,NNE,33,0.0,4.0,99,0.00,,,0.00,0.000000,,2013-03-13 14:12:00,
2013-03-13 04:21:00,49.0,49.0,-100.00,NNE,33,0.0,4.0,99,0.00,,,0.00,0.000000,,2013-03-13 14:21:00,
2013-03-13 04:33:00,49.0,49.0,-100.00,NNE,33,0.0,4.0,99,0.00,,,0.00,0.000000,,2013-03-13 14:33:00,
2013-03-13 05:02:00,49.0,49.0,-100.00,ENE,71,0.0,0.0,100,0.00,,,0.00,0.000000,,2013-03-13 15:02:00,
2013-03-13 05:12:00,49.0,49.0,-100.00,ENE,71,0.0,0.0,100,0.00,,,0.00,0.000000,,2013-03-13 15:12:00,
2013-03-13 05:22:00,49.0,49.0,-100.00,ENE,71,0.0,0.0,100,0.00,,,0.00,0.000000,,2013-03-13 15:22:00,
2013-03-13 05:32:00,49.0,49.0,-100.00,ENE,71,0.0,0.0,100,0.00,,,0.00,0.000000,,2013-03-13 15:32:00,
2013-03-13 06:02:00,48.0,47.0,-100.00,NE,56,1.0,2.0,98,0.00,,,0.00,0.000000,,2013-03-13 16:02:00,
2013-03-13 06:12:00,48.0,47.0,-100.00,NE,56,1.0,2.0,98,0.00,,,0.00,0.000000,,2013-03-13 16:12:00,
2013-03-13 06:22:00,48.0,47.0,-100.00,NE,56,1.0,2.0,98,0.00,,,0.00,0.000000,,2013-03-13 16:22:00,
2013-03-13 06:32:00,48.0,47.0,-100.00,NE,56,1.0,2.0,98,0.00,,,0.00,0.000000,,2013-03-13 16:32:00,
2013-03-13 07:02:00,48.0,47.0,-100.00,NE,47,1.0,2.0,98,0.00,,,0.00,0.000000,,2013-03-13 17:02:00,
2013-03-13 07:12:00,48.0,47.0,-100.00,NE,47,1.0,2.0,98,0.00,,,0.00,0.000000,,2013-03-13 17:12:00,
2013-03-13 07:22:00,48.0,47.0,-100.00,NE,47,1.0,2.0,98,0.00,,,0.00,0.000000,,2013-03-13 17:22:00,
2013-03-13 07:32:00,48.0,47.0,-100.00,NE,47,1.0,2.0,98,0.00,,,0.00,0.000000,,2013-03-13 17:32:00,
2013-03-13 07:53:00,52.0,52.0,-100.00,East,81,1.0,4.0,99,0.00,,,0.00,44.000000,,2013-03-13 17:53:00,
2013-03-13 08:02:00,52.0,52.0,-100.00,East,81,1.0,4.0,99,0.00,,,0.00,44.000000,,2013-03-13 18:02:00,
2013-03-13 08:12:00,52.0,52.0,-100.00,East,81,1.0,4.0,99,0.00,,,0.00,44.000000,,2013-03-13 18:12:00,
2013-03-13 08:22:00,52.0,52.0,-100.00,East,81,1.0,4.0,99,0.00,,,0.00,44.000000,,2013-03-13 18:22:00,
2013-03-13 08:32:00,52.0,52.0,-100.00,East,81,1.0,4.0,99,0.00,,,0.00,44.000000,,2013-03-13 18:32:00,
2013-03-13 09:02:00,58.0,52.0,-100.00,SE,134,2.0,6.0,79,0.00,,,0.00,270.000000,,2013-03-13 19:02:00,
2013-03-13 09:12:00,58.0,52.0,-100.00,SE,134,2.0,6.0,79,0.00,,,0.00,270.000000,,2013-03-13 19:12:00,
2013-03-13 09:22:00,58.0,52.0,-100.00,SE,134,2.0,6.0,79,0.00,,,0.00,270.000000,,2013-03-13 19:22:00,
2013-03-13 09:31:00,58.0,52.0,-100.00,SE,134,2.0,6.0,79,0.00,,,0.00,270.000000,,2013-03-13 19:31:00,
2013-03-13 10:02:00,61.0,52.0,-100.00,ENE,78,3.0,9.0,72,0.00,,,0.00,531.000000,,2013-03-13 20:02:00,
2013-03-13 10:12:00,61.0,52.0,-100.00,ENE,78,3.0,9.0,72,0.00,,,0.00,531.000000,,2013-03-13 20:12:00,
2013-03-13 10:22:00,61.0,52.0,-100.00,ENE,78,3.0,9.0,72,0.00,,,0.00,531.000000,,2013-03-13 20:22:00,
2013-03-13 10:32:00,61.0,52.0,-100.00,ENE,78,3.0,9.0,72,0.00,,,0.00,531.000000,,2013-03-13 20:32:00,
2013-03-13 11:02:00,63.0,51.0,-100.00,SW,226,2.0,6.0,65,0.00,,,-99.99,463.000000,,2013-03-13 21:02:00,
2013-03-13 11:12:00,63.0,51.0,-100.00,SW,226,2.0,6.0,65,0.00,,,-99.99,463.000000,,2013-03-13 21:12:00,
2013-03-13 11:22:00,63.0,51.0,-100.00,SW,226,2.0,6.0,65,0.00,,,-99.99,463.000000,,2013-03-13 21:22:00,
2013-03-13 11:32:00,63.0,51.0,-100.00,SW,226,2.0,6.0,65,0.00,,,-99.99,463.000000,,2013-03-13 21:32:00,
2013-03-13 12:02:00,65.0,53.0,-100.00,ESE,110,3.0,7.0,65,0.00,,,0.00,665.000000,,2013-03-13 22:02:00,
2013-03-13 12:12:00,65.0,53.0,-100.00,ESE,110,3.0,7.0,65,0.00,,,0.00,665.000000,,2013-03-13 22:12:00,
2013-03-13 12:22:00,65.0,53.0,-100.00,ESE,110,3.0,7.0,65,0.00,,,0.00,665.000000,,2013-03-13 22:22:00,
2013-03-13 12:31:00,65.0,53.0,-100.00,ESE,110,3.0,7.0,65,0.00,,,0.00,665.000000,,2013-03-13 22:31:00,
2013-03-13 13:02:00,63.0,53.0,-100.00,SSW,212,4.0,9.0,69,0.00,,,0.00,593.000000,,2013-03-13 23:02:00,
2013-03-13 13:12:00,63.0,53.0,-100.00,SSW,212,4.0,9.0,69,0.00,,,0.00,593.000000,,2013-03-13 23:12:00,
2013-03-13 13:22:00,63.0,53.0,-100.00,SSW,212,4.0,9.0,69,0.00,,,0.00,593.000000,,2013-03-13 23:22:00,
2013-03-13 13:32:00,63.0,53.0,-100.00,SSW,212,4.0,9.0,69,0.00,,,0.00,593.000000,,2013-03-13 23:32:00,
2013-03-13 14:02:00,65.0,54.0,-100.00,WSW,258,4.0,9.0,68,0.00,,,0.00,473.000000,,2013-03-14 00:02:00,
2013-03-13 14:12:00,65.0,54.0,-100.00,WSW,258,4.0,9.0,68,0.00,,,0.00,473.000000,,2013-03-14 00:12:00,
2013-03-13 14:22:00,65.0,54.0,-100.00,WSW,258,4.0,9.0,68,0.00,,,0.00,473.000000,,2013-03-14 00:22:00,
2013-03-13 14:32:00,65.0,54.0,-100.00,WSW,258,4.0,9.0,68,0.00,,,0.00,473.000000,,2013-03-14 00:32:00,
2013-03-13 15:02:00,63.0,49.0,-100.00,WSW,245,4.0,12.0,60,0.00,,,0.00,649.000000,,2013-03-14 01:02:00,
2013-03-13 15:12:00,63.0,49.0,-100.00,WSW,245,4.0,12.0,60,0.00,,,0.00,649.000000,,2013-03-14 01:12:00,
2013-03-13 15:22:00,63.0,49.0,-100.00,WSW,245,4.0,12.0,60,0.00,,,0.00,649.000000,,2013-03-14 01:22:00,
2013-03-13 15:32:00,63.0,49.0,-100.00,WSW,245,4.0,12.0,60,0.00,,,0.00,649.000000,,2013-03-14 01:32:00,
2013-03-13 16:02:00,63.0,50.0,-100.00,ESE,103,3.0,7.0,62,0.00,,,0.00,457.000000,,2013-03-14 02:02:00,
2013-03-13 16:12:00,63.0,50.0,-100.00,ESE,103,3.0,7.0,62,0.00,,,0.00,457.000000,,2013-03-14 02:12:00,
2013-03-13 16:22:00,63.0,50.0,-100.00,ESE,103,3.0,7.0,62,0.00,,,0.00,457.000000,,2013-03-14 02:22:00,
2013-03-13 16:32:00,63.0,50.0,-100.00,ESE,103,3.0,7.0,62,0.00,,,0.00,457.000000,,2013-03-14 02:32:00,
2013-03-13 17:01:00,60.0,51.0,-100.00,WSW,243,2.0,10.0,72,0.00,,,0.00,277.000000,,2013-03-14 03:01:00,
2013-03-13 17:12:00,60.0,51.0,-100.00,WSW,243,2.0,10.0,72,0.00,,,0.00,277.000000,,2013-03-14 03:12:00,
2013-03-13 17:22:00,60.0,51.0,-100.00,WSW,243,2.0,10.0,72,0.00,,,0.00,277.000000,,2013-03-14 03:22:00,
2013-03-13 17:32:00,60.0,51.0,-100.00,WSW,243,2.0,10.0,72,0.00,,,0.00,277.000000,,2013-03-14 03:32:00,
2013-03-13 18:12:00,59.0,50.0,-100.00,WSW,250,2.0,8.0,73,0.00,,,0.00,252.000000,,2013-03-14 04:12:00,
2013-03-13 18:22:00,59.0,50.0,-100.00,WSW,250,2.0,8.0,73,0.00,,,0.00,252.000000,,2013-03-14 04:22:00,
2013-03-13 18:32:00,59.0,50.0,-100.00,WSW,250,2.0,8.0,73,0.00,,,0.00,252.000000,,2013-03-14 04:32:00,
2013-03-13 19:02:00,56.0,51.0,-100.00,West,263,2.0,9.0,82,0.00,,,0.00,67.000000,,2013-03-14 05:02:00,
2013-03-13 19:12:00,56.0,51.0,-100.00,West,263,2.0,9.0,82,0.00,,,0.00,67.000000,,2013-03-14 05:12:00,
2013-03-13 19:22:00,56.0,51.0,-100.00,West,263,2.0,9.0,82,0.00,,,0.00,67.000000,,2013-03-14 05:22:00,
2013-03-13 19:32:00,56.0,51.0,-100.00,West,263,2.0,9.0,82,0.00,,,0.00,67.000000,,2013-03-14 05:32:00,
2013-03-13 20:02:00,55.0,52.0,-100.00,WSW,244,1.0,7.0,90,0.00,,,0.00,1.000000,,2013-03-14 06:02:00,
2013-03-13 20:12:00,55.0,52.0,-100.00,WSW,244,1.0,7.0,90,0.00,,,0.00,1.000000,,2013-03-14 06:12:00,
2013-03-13 20:22:00,55.0,52.0,-100.00,WSW,244,1.0,7.0,90,0.00,,,0.00,1.000000,,2013-03-14 06:22:00,
2013-03-13 20:32:00,55.0,52.0,-100.00,WSW,244,1.0,7.0,90,0.00,,,0.00,1.000000,,2013-03-14 06:32:00,
2013-03-13 21:02:00,53.0,50.0,-100.00,NW,321,0.0,0.0,90,0.00,,,0.00,0.000000,,2013-03-14 07:02:00,
2013-03-13 21:11:00,53.0,50.0,-100.00,NW,321,0.0,0.0,90,0.00,,,0.00,0.000000,,2013-03-14 07:11:00,
2013-03-13 21:22:00,53.0,50.0,-100.00,NW,321,0.0,0.0,90,0.00,,,0.00,0.000000,,2013-03-14 07:22:00,
2013-03-13 21:32:00,53.0,50.0,-100.00,NW,321,0.0,0.0,90,0.00,,,0.00,0.000000,,2013-03-14 07:32:00,
2013-03-13 22:02:00,52.0,51.0,-100.00,ENE,60,0.0,0.0,95,0.00,,,0.00,0.000000,,2013-03-14 08:02:00,
2013-03-13 22:12:00,52.0,51.0,-100.00,ENE,60,0.0,0.0,95,0.00,,,0.00,0.000000,,2013-03-14 08:12:00,
2013-03-13 22:21:00,52.0,51.0,-100.00,ENE,60,0.0,0.0,95,0.00,,,0.00,0.000000,,2013-03-14 08:21:00,
2013-03-13 22:31:00,52.0,51.0,-100.00,ENE,60,0.0,0.0,95,0.00,,,0.00,0.000000,,2013-03-14 08:31:00,
2013-03-13 22:52:00,52.0,51.0,-100.00,NNW,346,0.0,0.0,97,0.00,,,0.00,0.000000,,2013-03-14 08:52:00,
2013-03-13 23:01:00,52.0,51.0,-100.00,NNW,346,0.0,0.0,97,0.00,,,0.00,0.000000,,2013-03-14 09:01:00,
2013-03-13 23:12:00,52.0,51.0,-100.00,NNW,346,0.0,0.0,97,0.00,,,0.00,0.000000,,2013-03-14 09:12:00,
2013-03-13 23:22:00,52.0,51.0,-100.00,NNW,346,0.0,0.0,97,0.00,,,0.00,0.000000,,2013-03-14 09:22:00,
2013-03-13 23:31:00,52.0,51.0,-100.00,NNW,346,0.0,0.0,97,0.00,,,0.00,0.000000,,2013-03-14 09:31:00,